{"data":{"norad_id":53533,"intl_designator":"2022-101G","name":"STARLINK-4493","alt_names":[],"object_type":"PAYLOAD","status":"ACTIVE","operator":null,"country":"US","launch_date":"2022-08-19","launch_site_code":"AFETR","launch_vehicle":null,"mission":null,"orbit_class":"UNKNOWN","rcs_meters":null,"size_class":null,"mass_kg":null,"dimensions":null,"purposes":["comms"],"wikipedia_slug":null,"has_3d_model":false,"image_url":null,"decayed_at":null,"tle_current":{"epoch":"2026-09-20T05:35:48.583680Z","epoch_age_seconds":101298,"freshness":"FRESH","line1":"1 53533U 22101G   26263.23320120  .00000044  00000+0  13191-4 0  9993","line2":"2 53533  53.1587 269.1191 0001172  78.8847 281.2286 15.31701170225691","mean_motion":15.3170117,"eccentricity":0.0001172,"inclination_deg":53.1587,"raan_deg":269.1191,"arg_perigee_deg":78.8847,"mean_anomaly_deg":281.2286,"bstar":1.3191e-5,"rev_number":22569,"period_min":94.013116148498,"perigee_km":469.93381954367,"apogee_km":471.53919549383,"semimajor_km":6848.8735075187,"source":"CELESTRAK","updated_at":"2026-09-21T09:00:32.899585Z"}}}